sat.trackr.live / text

‹ back to catalog

2024-205G

NORAD 61900 · 2024-205G

PAYLOAD ACTIVE UNKNOWN

§ Identity

Operator
Country
PRC
Launch date
2024-11-11
Launch site
JSC
Launch vehicle
Mass (kg)
RCS (m²)

External: N2YO · Heavens-Above · Gunter

§ Orbital elements

Epoch: 2026-09-22T22:46:50.506752Z

Period
95.25 min
Inclination
97.4048°
Eccentricity
0.0019221
Mean motion
15.11766858 rev/d
Perigee alt
517.5 km
Apogee alt
544.1 km
Semi-major
6,908.9 km
B*
2.6312e-4
RAAN
332.7889°
Arg perigee
168.1784°
Mean anomaly
191.9902°
Rev number
10,292

§ Raw data

2024-205G1 61900U 24205G   26265.94919568  .00004444  00000+0  26312-3 0  99932 61900  97.4048 332.7889 0019221 168.1784 191.9902 15.11766858102923

JSON: /api/v1/satellites/61900 · /tle

For live sub-satellite position, see the globe view (requires WebGL).

§ Visibility from observer

Set your observer location to see the next 7 days of passes ≥ 10°. The values pass through the URL so the page stays shareable.

No JS? Fill the form by hand. The geolocation button needs JavaScript.